map of BVB home
Great Circle Mapper logo
BVB - Airport
Location
City:  Boa Vista, Roraima, Brazil
ICAO / IATA:SBBV / BVB

Details
Type:Airport (Aerodrome, Airfield)
Use:Public/Civil, International (customs port of entry)
Latitude:250'47"N (2.846311)
Longitude:6041'24"W (-60.690068)
Datum:WGS 1984
Elevation:276 ft (84 m)
Variation:15.21W (WMM2015 magnetic declination)
-0.09 annual change
Runways:1
Longest:8858 × 148 ft (2700 × 45 m), paved

Time
Time Zone:UTC-4
Local Time:

Weather
METAR:SBBV 300300Z 12007KT 9999 FEW020 SCT080 26/21 Q1013
TAF:SBBV 292200Z 3000/3024 10005KT CAVOK TN25/3008Z TX31/3017Z
BECMG 3013/3015 04010KT 9999 FEW020 FEW030TCU
BECMG 3017/3019 09005KT
BECMG 3021/3023 CAVOK
RMK PDY

Related Locations
Nearby:
Farthest:WAWJ: 12431 mi / 20006 km
Tampa Padang [Tampa Padang Airport], SR, ID

Find:

   beyond  
but within

Other Information
Maps:
NOTAMs:
Links:
Sources:

  
flag of Brazil
flag of Roraima
  

Sectional Chart

Flight Planning
at skyvector.com

Satellite Image

Google Maps Satellite view

 

Copyright © 2004-2015 Karl L. Swartz. All rights reserved.
The Great Circle Mapper name and logo are trademarks of the Great Circle Mapper.
All other trademarks mentioned herein belong to their respective owners.
Please see credits for attibutions and further copyright information.

  Follow gcmap on Facebook Follow gcmap on Twitter Follow gcmap on Google+

hCard Microformat

Geo Microformat